Weather in El Vigia

Venezuela     8°36′36″N   71°39′58″W
temp.,
°C
wind,
m/s
gust,
m/s
humid.,
%
clouds,
%
prec.,
mm/h
press.,
hPa
HPBL,
m
4 march, thu
thu423:00+24s127368 0.3 101529
02:00+22sw127977 0.4 101431
05:00+21ssw227798 0.1 101429
08:00+21s117399 0.1 101539
11:00+26nw226679 0.0 1015586
14:00+29nnw225453 0.0 10111109
17:00+30e014981 0.1 10091279
20:00+24sse337090 0.1 101058
5 march, fri
fri523:00+24sse336391 0.0 101449
02:00+22s226855 0.0 101230
05:00+21ssw12757 0.4 101229
08:00+22w11765 0.4 101388
11:00+26nnw227189 0.0 1014647
14:00+28nnw226264 0.8 10101067
17:00+29e115834 1.2 1008939
20:00+24sse228318 2.5 101026
6 march, sat
sat623:00+23sse337822 0.4 101241
02:00+22ssw227812 0.4 101135
05:00+21s12810 0.0 101124
08:00+22sw11790 0.0 101368
11:00+27nnw22680 0.0 1014713
14:00+29nnw126714 1.6 1010948
17:00+28sse12713 3.3 1007422
20:00+24sse128323 5.2 101025
7 march, sun
sun723:00+24sse227796 1.1 101231
02:00+22s128197 1.2 101128
05:00+22s118220 0.0 101124
08:00+23s117715 0.0 101350
11:00+28nw226624 0.1 1015656
14:00+31nw215762 2.1 10101205
17:00+29n016399 3.3 1008794
20:00+25sse1179100 7.1 101124
8 march, mon
mon823:00+24se2285100 3.4 101342
02:00+23ssw1188100 3.7 101225
05:00+22wsw1293100 1.1 101153
08:00+23w1190100 1.3 1014133
11:00+26nw238182 0.6 1015498
14:00+27nnw117791 2.8 1011592
17:00+28sw1170100 3.8 1009649
20:00+23sse2283100 7.3 101235